This demonstration page uses our WeatherBlox Daily Observations layout. Learn more.

Left ArrowRight Arrow

39.01783, -85.05884

Hourly Observations for October 24, 2016

Temp ( °F °C ) Dew Point ( °F °C ) Humidity (%) Winds ( mph kmh ) Pressure ( in mb ) Visibility ( mi km ) Precip ( " mm )
12:52 am 00:52 Clear 62 16.7 46 7.8 56 56 WSW 9 15 30.04 1017 10 16 0.00 0.00
1:52 am 01:52 Clear 61 16.1 46 7.8 58 58 WSW 6 9 30.05 1018 10 16 0.00 0.00
2:52 am 02:52 Clear 57 13.9 46 7.8 67 67 W 7 11 30.06 1018 10 16 0.00 0.00
3:52 am 03:52 Clear 55 12.8 46 7.8 72 72 W 5 7 30.08 1019 10 16 0.00 0.00
4:52 am 04:52 Clear 52 11.1 46 7.8 80 80 W 8 13 30.09 1019 10 16 0.00 0.00
5:52 am 05:52 Clear 51 10.6 46 7.8 83 83 W 9 15 30.12 1020 10 16 0.00 0.00
6:52 am 06:52 Clear 51 10.6 47 8.3 86 86 NW 6 9 30.15 1021 10 16 0.00 0.00
7:52 am 07:52 Clear 51 10.6 47 8.3 86 86 NNW 9 15 30.18 1022 10 16 0.00 0.00
8:52 am 08:52 Mostly Sunny 52 11.1 48 8.9 86 86 N 12 19 30.22 1023 10 16 0.00 0.00
9:52 am 09:52 Sunny 54 12.2 48 8.9 80 80 N 13 20 30.24 1024 10 16 0.00 0.00
10:52 am 10:52 Mostly Sunny 58 14.4 45 7.2 62 62 N 15 24 30.27 1025 10 16 0.00 0.00
11:52 am 11:52 Mostly Sunny 60 15.6 43 6.1 53 53 N 12 19 30.28 1025 10 16 0.00 0.00
12:52 pm 12:52 Mostly Sunny 62 16.7 42 5.6 48 48 N 10 17 30.29 1026 10 16 0.00 0.00
2:52 pm 14:52 Mostly Sunny 63 17.2 41 5 45 45 N 10 17 30.27 1025 10 16 0.00 0.00
3:52 pm 15:52 Mostly Sunny 64 17.8 41 5 43 43 N 14 22 30.27 1025 10 16 0.00 0.00
4:52 pm 16:52 Mostly Sunny 63 17.2 41 5 45 45 NNW 12 19 30.28 1025 10 16 0.00 0.00
5:52 pm 17:52 Sunny 62 16.7 40 4.4 44 44 N 9 15 30.28 1026 10 16 0.00 0.00
6:52 pm 18:52 Clear 57 13.9 41 5 55 55 N 6 9 30.29 1026 10 16 0.00 0.00
7:52 pm 19:52 Clear 54 12.2 42 5.6 64 64 NNW 6 9 30.31 1027 10 16 0.00 0.00
8:52 pm 20:52 Clear 54 12.2 41 5 62 62 N 5 7 30.33 1027 10 16 0.00 0.00
9:52 pm 21:52 Clear 51 10.6 41 5 69 69 N 5 7 30.34 1027 10 16 0.00 0.00
10:52 pm 22:52 Clear 48 8.9 41 5 77 77 Calm 30.35 1028 10 16 0.00 0.00
11:52 pm 23:52 Clear 49 9.4 41 5 74 74 Calm 30.35 1028 10 16 0.00 0.00

Powered by AerisWeather